OBJECT C, 56745

Orbit data source: Space-Track

You're viewing an Uncataloged Satellite

Recently launched and/or uncataloged satellites may have evolving metadata. Metadata may include but not limited to: Owner, Maufacturer, Bus, Motor, and Mission.

OBJECT C, 56745 is a satellite owned by KASI (KR) in SSO that was launched on Thu, 25 May 2023 UTC via an NURI launch vehicle from the Naro Space Center, South Korea (NSC). Unknown objects in Earth's orbit typically refer to objects detected orbiting the Earth but have not yet been identified or cataloged. These objects could be anything from previously untracked satellites, spent rocket stages, debris from satellite collisions, or even natural meteoroids temporarily captured by Earth's gravity.

Loading next visibility...
Identifier
56745, 2023-072C
Orbit
SSO
Country
Flag of UnknownUnknown / SKOR
Related business
Flag of KRKorea Astronomy and Space Science Institute (KR)
Manufacturer
KASI
Mission
Operational Civil Ast/Sci
Bus & Motor
CUBESAT 6U, Unknown motor
Mass
10 kg wet, 10 kg dry
Launch date (UTC)
2023-05-25 (2 years ago)
Launch vehicle
NURI
Launch site
Naro Space Center, South Korea (NSC)
Object type
Unknown
Shape & HBR
Box + 2 Pan, 0.3 m
Radar Cross Section
0.054 m², Medium (>0.1 m² and < 1m²)

Expand to show TLE details & history
Last TLE update: 10 hours ago

TLE from 10 hours ago
0 OBJECT C
1 56745U 23072C   25286.64310878  .00024946  00000-0  77403-3 0  9990
2 56745  97.5468 123.2738 0006392 147.9946 212.1685 15.33366324132292
Epoch: 2025-10-13T15:26Z
TLE epoch observation values (Epoch: 2025-10-13T15:26:04.598Z)
Latitude
-0.00006°
Longitude
-130.6883°
Altitude
472.586 km
Speed
7.628 km/s
True Right ascension
08h 13m 05s
True Declination
0° 00' 00"
Sunlit
Object was in daylight at epoch
Visualization orbit readout
Latitude
Unknown
Longitude
Unknown
Altitude
Unknown
Speed
Unknown
Apparent Right ascension
Unknown
Apparent Declination
Unknown
Sunlit
N/A
Visualization observer readout
Local Sidereal Time
19:45:40
Azimuth
Unknown
Elevation
Unknown
Doppler factor
Unknown
Orbital elements
Apogee altitude
467.104 km
Perigee altitude
458.359 km
Semi-major axis
6,840.868 km
Eccentricity
0.00064
Inclination
97.5468°
RAAN
123.2738°
Arg. of periapsis
147.9946°
True anomaly
212.12953°
Mean anomaly
212.1685°
Eccentric anomaly
212.14901°
Mean motion
3.83598 °/min
Orbital period
93.85 mins
BSTAR
0.00077403
Loading maneuver chart data...
Computing Atmospheric mass density...
Loading historical data...
Loading historical data...
Loading historical data...
Loading historical data...
Loading historical data...
Loading historical data...
Loading historical data...

Documentation

Showing up to 5 results
|